Pittsburgh Allegheny Co., PA

7:49 PM EDT on May 26, 2017 (GMT -0400)
Allegheny County

Weather History for KAGC - April, 2013

Change the Weather History Date:

Thursday, April 4, 2013

  Actual Average Record
Temperature  
Mean Temperature 36 °F -  
Max Temperature 53 °F 56 °F 73 °F (1997)
Min Temperature 21 °F 36 °F 21 °F (2013)
Degree Days  
Heating Degree Days 28    
Moisture  
Dew Point 11 °F    
Average Humidity 38    
Maximum Humidity 74    
Minimum Humidity 14    
Precipitation  
Precipitation 0.00 in - - ()
Sea Level Pressure  
Sea Level Pressure 30.21 in    
Wind  
Wind Speed 5 mph (SE)    
Max Wind Speed 10 mph    
Max Gust Speed -    
Visibility 10 miles    
Events      
Averages and records for this station are not official NWS values.
T = Trace of Precipitation, MM = Missing Value Source: NWS Daily Summary

Daily Weather History Graph

Daily Weather History Graph

Search for Another Location

Airport or City:

Trip Planner

Search our weather history database for the weather conditions in past years. The results will help you decide how hot, cold, wet, or windy it might be!

Date:

Astronomy

Apr. 04, 2013 Rise Set
Actual Time 6:58 AM EDT 7:47 PM EDT
Civil Twilight 6:30 AM EDT 8:15 PM EDT
Nautical Twilight 5:58 AM EDT 8:48 PM EDT
Astronomical Twilight 5:24 AM EDT 9:21 PM EDT
Moon 3:24 AM EDT (4/4) 2:03 PM EDT (4/4)
Length of Visible Light 13h 44m
Length of Day
12h 49m
Waning Crescent, 34% of the Moon is Illuminated
Apr 4
Waning Crescent
Apr 10
New
Apr 18
First Quarter
Apr 25
Full
May 2
Last Quarter

Hourly Weather History & Observations

Time (EDT) Temp. Windchill Dew Point Humidity Pressure Visibility Wind Dir Wind Speed Gust Speed Precip Events Conditions
12:53 AM 28.0 °F 24.2 °F 10.0 °F 47% 30.41 in 10.0 mi ESE 3.5 mph - N/A   Clear
1:53 AM 26.1 °F 21.9 °F 10.0 °F 51% 30.39 in 10.0 mi ENE 3.5 mph - N/A   Clear
2:53 AM 26.1 °F 21.9 °F 10.0 °F 51% 30.38 in 10.0 mi ENE 3.5 mph - N/A   Clear
3:53 AM 25.0 °F 20.7 °F 10.9 °F 55% 30.38 in 10.0 mi ENE 3.5 mph - N/A   Clear
4:53 AM 24.1 °F 18.2 °F 10.0 °F 55% 30.40 in 10.0 mi South 4.6 mph - N/A   Clear
5:53 AM 21.0 °F 14.6 °F 12.0 °F 68% 30.39 in 10.0 mi SE 4.6 mph - N/A   Clear
6:53 AM 21.0 °F 16.2 °F 14.0 °F 74% 30.37 in 10.0 mi ENE 3.5 mph - N/A   Clear
7:53 AM 21.9 °F - 12.0 °F 66% 30.35 in 9.0 mi Calm Calm - N/A   Clear
8:53 AM 27.0 °F 23.0 °F 16.0 °F 63% 30.33 in 10.0 mi Variable 3.5 mph - N/A   Clear
9:53 AM 30.0 °F 26.5 °F 12.9 °F 49% 30.31 in 10.0 mi Variable 3.5 mph - N/A   Clear
10:53 AM 36.0 °F 33.3 °F 12.0 °F 37% 30.28 in 10.0 mi Variable 3.5 mph - N/A   Clear
11:53 AM 42.1 °F 39.2 °F 7.0 °F 24% 30.25 in 10.0 mi SE 4.6 mph - N/A   Clear
12:53 PM 46.0 °F 42.5 °F 8.1 °F 21% 30.20 in 10.0 mi ESE 6.9 mph - N/A   Clear
1:53 PM 48.9 °F - 8.1 °F 19% 30.16 in 10.0 mi SSE 10.4 mph - N/A   Clear
2:53 PM 52.0 °F - 3.9 °F 14% 30.13 in 10.0 mi South 8.1 mph - N/A   Clear
3:53 PM 52.0 °F - 5.0 °F 15% 30.09 in 10.0 mi SSE 9.2 mph - N/A   Clear
4:53 PM 52.0 °F - 6.1 °F 16% 30.07 in 10.0 mi SSE 8.1 mph - N/A   Clear
5:53 PM 52.0 °F - 10.0 °F 19% 30.05 in 10.0 mi South 6.9 mph - N/A   Clear
6:53 PM 51.1 °F - 12.0 °F 21% 30.05 in 10.0 mi SSW 4.6 mph - N/A   Clear
7:53 PM 48.9 °F - 15.1 °F 26% 30.03 in 10.0 mi SE 5.8 mph - N/A   Clear
8:53 PM 46.9 °F - 16.0 °F 29% 30.02 in 10.0 mi SE 3.5 mph - N/A   Clear
9:53 PM 46.0 °F 43.1 °F 15.1 °F 29% 30.03 in 10.0 mi SSE 5.8 mph - N/A   Clear
10:53 PM 46.9 °F - 15.1 °F 28% 30.00 in 10.0 mi South 4.6 mph - N/A   Clear
11:53 PM 44.1 °F 39.5 °F 16.0 °F 32% 29.99 in 10.0 mi SSW 8.1 mph - N/A   Clear